Concord, NH

4:10 AM EST on December 06, 2016 (GMT -0500)
Concord Municipal

Weather History for KCON - May, 2014

Change the Weather History Date:

Thursday, May 8, 2014

  Actual Average Record
Temperature  
Mean Temperature 53 °F 53 °F  
Max Temperature 74 °F 67 °F 93 °F (1936)
Min Temperature 32 °F 40 °F 22 °F (1968)
Degree Days  
Heating Degree Days 12 12  
Month to date heating degree days 109 105  
Since 1 July heating degree days 7411 6952  
Cooling Degree Days 0 0  
Month to date cooling degree days 0 0  
Year to date cooling degree days 0 2  
Growing Degree Days 2 (Base 50)    
Moisture  
Dew Point 30 °F    
Average Humidity 55    
Maximum Humidity 96    
Minimum Humidity 14    
Precipitation  
Precipitation 0.00 in 0.11 in 1.04 in (1994)
Month to date precipitation 0.96 0.91  
Year to date precipitation 15.13 12.91  
Snow  
Snow 0.00 in 0.00 in 1.10 in (1966)
Month to date snowfall 0.0 0.1  
Since 1 July snowfall 80.4 61.5  
Snow Depth 0.00 in    
Sea Level Pressure  
Sea Level Pressure 30.15 in    
Wind  
Wind Speed 3 mph (NE)    
Max Wind Speed 12 mph    
Max Gust Speed 15 mph    
Visibility 10 miles    
Events      
T = Trace of Precipitation, MM = Missing Value Source: NWS Daily Summary

Daily Weather History Graph

Daily Weather History Graph

Search for Another Location

Airport or City:

Trip Planner

Search our weather history database for the weather conditions in past years. The results will help you decide how hot, cold, wet, or windy it might be!

Date:

Astronomy

May. 08, 2014 Rise Set
Actual Time 5:30 AM EDT 7:55 PM EDT
Civil Twilight 4:58 AM EDT 8:27 PM EDT
Nautical Twilight 4:18 AM EDT 9:07 PM EDT
Astronomical Twilight 3:34 AM EDT 9:52 PM EDT
Moon 1:43 PM EDT (5/8) 2:10 AM EDT (5/8)
Length of Visible Light 15h 29m
Length of Day
14h 25m
Waxing Gibbous, 64% of the Moon is Illuminated
May 8
Waxing Gibbous
May 14
Full
May 21
Last Quarter
May 28
New
Jun 5
First Quarter

Hourly Weather History & Observations

Time (EDT) Temp. Windchill Dew Point Humidity Pressure Visibility Wind Dir Wind Speed Gust Speed Precip Events Conditions
12:51 AM 41.0 °F - 32.0 °F 70% 30.18 in 10.0 mi Calm Calm - N/A   Clear
1:51 AM 36.0 °F - 32.0 °F 86% 30.18 in 10.0 mi Calm Calm - N/A   Clear
2:51 AM 34.0 °F - 30.9 °F 89% 30.19 in 10.0 mi Calm Calm - N/A   Clear
3:51 AM 36.0 °F - 30.9 °F 82% 30.18 in 10.0 mi Calm Calm - N/A   Clear
4:51 AM 35.6 °F 32.8 °F 30.2 °F 81% 30.18 in 10.0 mi ENE 3.5 mph - N/A   Clear
5:51 AM 34.0 °F - 32.0 °F 92% 30.20 in 10.0 mi Calm Calm - N/A   Clear
6:51 AM 39.0 °F - 35.1 °F 86% 30.21 in 10.0 mi Calm Calm - N/A   Clear
7:51 AM 46.4 °F 45.2 °F 33.8 °F 62% 30.19 in 10.0 mi North 3.5 mph - N/A   Clear
8:51 AM 53.1 °F - 32.0 °F 45% 30.20 in 10.0 mi Calm Calm - N/A   Clear
9:51 AM 60.1 °F - 28.9 °F 31% 30.19 in 10.0 mi Calm Calm - N/A   Clear
10:51 AM 64.0 °F - 23.0 °F 21% 30.18 in 10.0 mi Variable 3.5 mph - N/A   Clear
11:51 AM 64.9 °F - 21.9 °F 19% 30.15 in 10.0 mi WSW 4.6 mph - N/A   Clear
12:51 PM 68.0 °F - 24.1 °F 19% 30.13 in 10.0 mi Variable 4.6 mph - N/A   Clear
1:51 PM 70.0 °F - 25.0 °F 18% 30.10 in 10.0 mi Calm Calm - N/A   Clear
2:51 PM 71.1 °F - 24.1 °F 17% 30.08 in 10.0 mi Variable 5.8 mph - N/A   Clear
3:51 PM 72.0 °F - 25.0 °F 17% 30.06 in 10.0 mi Variable 3.5 mph - N/A   Clear
4:51 PM 73.0 °F - 21.9 °F 15% 30.05 in 10.0 mi NW 3.5 mph - N/A   Clear
5:51 PM 72.0 °F - 21.9 °F 15% 30.06 in 10.0 mi NNW 9.2 mph - N/A   Clear
6:51 PM 66.0 °F - 34.0 °F 30% 30.08 in 10.0 mi ESE 8.1 mph - N/A   Clear
7:51 PM 62.1 °F - 36.0 °F 38% 30.11 in 10.0 mi East 6.9 mph - N/A   Clear
8:51 PM 57.9 °F - 35.1 °F 42% 30.14 in 10.0 mi ESE 4.6 mph - N/A   Clear
9:51 PM 55.0 °F - 35.1 °F 47% 30.16 in 10.0 mi East 6.9 mph - N/A   Clear
10:51 PM 53.6 °F - 35.6 °F 51% 30.17 in 10.0 mi NNE 3.5 mph - N/A   Clear
11:51 PM 51.1 °F - 36.0 °F 56% 30.19 in 10.0 mi Calm Calm - N/A   Clear